Location: Unspecified
(39.4830°S, 0.0000°E)
Time: 02:42:10
(UTC+00:00)

Envisat - Visible Passes

Search period start: 23 October 2019 00:00
Search period end: 02 November 2019 00:00
Orbit: 764 x 766 km, 98.1° (Epoch: 22 October)

Date Brightness Start Highest point End Pass type
(mag) Time Alt. Az. Time Alt. Az. Time Alt. Az.
23 Oct 5.9 20:16:38 10° SSW 20:20:04 18° WSW 20:23:29 10° WNW visible
24 Oct 4.6 19:38:55 10° S 19:43:39 38° WSW 19:48:21 10° NW visible
25 Oct 3.1 19:01:51 10° SSE 19:07:02 85° WSW 19:12:09 10° NNW visible
25 Oct 6.4 20:44:17 10° SW 20:45:12 10° WSW 20:46:07 10° WSW visible
26 Oct 5.6 20:04:59 10° SSW 20:08:55 23° WSW 20:12:51 10° WNW visible
27 Oct 4.2 19:27:30 10° S 19:32:27 48° WSW 19:37:20 10° NW visible
28 Oct 6.2 20:31:42 10° SSW 20:34:06 13° WSW 20:36:29 10° W visible
29 Oct 5.2 19:53:26 10° S 19:57:46 28° WSW 20:02:04 10° NW visible
30 Oct 3.7 19:16:09 10° S 19:21:14 61° WSW 19:26:15 10° NNW visible
31 Oct 6.0 20:19:48 10° SSW 20:22:59 17° WSW 20:26:09 10° WNW visible
01 Nov 4.8 19:41:57 10° S 19:46:35 35° WSW 19:51:11 10° NW visible
